Regional Weather Roundup
Issued by NWS

Home | Current Version | Previous Version | Graphics & Text | Print | Product List | Glossary On
Versions: 1 2 3 4 5 6 7 8 9 10 11 12 13 14 15 16 17 18 19 20 21 22 23 24 25 26 27 28 29 30 31 32 33 34 35 36 37 38 39 40 41 42 43 44 45 46 47 48 49 50
000
ASUS43 KMKX 300300
RWRWI

WISCONSIN REGIONAL WEATHER ROUNDUP
NATIONAL WEATHER SERVICE MILWAUKEE/SULLIVAN WI
1000 PM CDT MON JUN 29 2015

NOTE: "FAIR" INDICATES FEW OR NO CLOUDS BELOW 12,000 FEET WITH NO
SIGNIFICANT WEATHER AND/OR OBSTRUCTIONS TO VISIBILITY.

WIZ001-002-006>008-014>016-023>028-300400-
NORTHWEST WISCONSIN

CITY           SKY/WX    TMP DP  RH WIND       PRES   REMARKS
SUPERIOR ARPT  CLEAR     63  61  95 N5        29.81R
ASHLAND        MOCLDY    62  62 100 NW5       29.82R FOG
HAYWARD        PTCLDY    62  60  93 CALM      29.82R
SIREN          CLEAR     62  61  96 CALM      29.83R FOG
CUMBERLAND     CLEAR     59  59 100 W3        29.82R
RICE LAKE      CLEAR     61  59  93 CALM      29.83R
CHETEK         CLEAR     60  60  99 W3        29.82R FOG
LADYSMITH      CLEAR     62  60  94 CALM      29.81S
EAU CLAIRE     PTCLDY    59  57  93 N5        29.80R FOG
MENOMONIE      PTCLDY    62  61  97 W6        29.81R FOG
NEW RICHMOND   CLEAR     60  59  99 CALM      29.83R
OSCEOLA        CLEAR     61  61 100 CALM      29.84S
$$

WIZ003>005-009-010-017-018-300400-
NORTH CENTRAL WISCONSIN

CITY           SKY/WX    TMP DP  RH WIND       PRES   REMARKS
MANITOWISH WTR CLEAR     61  61  99 N3        29.80S
ARBOR VITAE    MOCLDY    63  61  94 NE3       29.80R
WOODRUFF       MOCLDY    63  61  94 NE3       29.80R
RHINELANDER    MOCLDY    60  59  96 CALM      29.80S FOG
EAGLE RIVER    LGT RAIN  59  59  99 CALM      29.80R
LAND O LAKES   LGT RAIN  62  61  96 N3        29.82R
PHILLIPS       FOG       58  58 100 CALM      29.79S VSB 1
TOMAHAWK       FOG       56  55  97 CALM      29.80S VSB 1/4
MEDFORD        PTCLDY    58  57  99 CALM      29.80S FOG
MERRILL        MOCLDY    58  58 100 CALM      29.80S FOG
$$

WIZ029-030-035-036-043>047-300400-
CENTRAL WISCONSIN

CITY           SKY/WX    TMP DP  RH WIND       PRES   REMARKS
WAUSAU         MOCLDY    62  58  86 NW5       29.77S
MOSINEE        NOT AVBL
MARSHFIELD     MOCLDY    60  56  86 NW3       29.80R FOG
STEVENS POINT  MOCLDY    59  57  94 CALM      29.78S
WAUPACA        MOCLDY    64  62  93 CALM      29.77S
WAUTOMA        NOT AVBL
WISC RAPIDS    MOCLDY    59  57  93 CALM      29.81R FOG
CAMP DOUGLAS   NOT AVBL
$$

WIZ011>013-019>022-031-037>040-048>050-300400-
NORTHEAST WISCONSIN

CITY           SKY/WX    TMP DP  RH WIND       PRES   REMARKS
ANTIGO         MOCLDY    58  58 100 CALM      29.79S FOG
SHAWANO        CLOUDY    64  62  93 W3        29.77R
OCONTO         CLOUDY    63  63 100 CALM      29.75S
STURGEON BAY   CLOUDY    63  55  77 S7        29.78S
GREEN BAY      HVY RAIN  65  63  93 N5        29.77R VSB 1
MANITOWOC      NOT AVBL
APPLETON       MOCLDY    63  57  82 NW9       29.77
CLINTONVILLE   MOCLDY   N/A N/A N/A CALM      29.77R
OSHKOSH        PTCLDY    63  58  83 W5        29.76S
$$

WIZ032>034-041-042-053>061-300400-
SOUTHWEST WISCONSIN

CITY           SKY/WX    TMP DP  RH WIND       PRES   REMARKS
LA CROSSE      CLOUDY    64  61  90 E3        29.80R
SPARTA         CLOUDY    61  59  95 CALM      29.81R
VIROQUA        CLOUDY    61  61 100 NW7       29.81R
BOSCOBEL       CLOUDY    64  61  90 VRB5      29.81R
PRAIRIE DU CHI CLOUDY    63  61  95 W5        29.82R
PLATTEVILLE    CLOUDY    65  63  94 SE7       29.81F
$$

WIZ056-057-062-063-064-067-068-300400-
SOUTH CENTRAL WISCONSIN

CITY           SKY/WX    TMP DP  RH WIND       PRES   REMARKS
REEDSBURG      MOCLDY    60  59  97 SW6       29.78R
BARABOO/DELLS  MOCLDY    60  58  92 CALM      29.78R
LONE ROCK      NOT AVBL
MINERAL POINT  CLOUDY    63  61  94 S7        29.80F
MADISON        CLOUDY    64  59  83 CALM      29.78F
MIDDLETON      CLOUDY    64  62  93 CALM      29.80F
WATERTOWN      MOCLDY    63  63 100 CALM      29.78S
MONROE         TSTM      61  59  94 N7        29.83R
JANESVILLE     HVY RAIN  63  61  94 NW12G28   29.81R
$$

WIZ051-052-058>065-066-070>072-300400-
SOUTHEAST WISCONSIN

CITY           SKY/WX    TMP DP  RH WIND       PRES   REMARKS
MILWAUKEE      MOCLDY    64  60  87 S8        29.79R
WAUKESHA       MOCLDY    64  61  88 SW6       29.81R
MILWAUKEE/TIMM MOCLDY    68  59  73 S6        29.79S
RACINE         PTCLDY    63  60  90 S5        29.82R FOG
BURLINGTON     PTCLDY    62  61  96 CALM      29.80R
KENOSHA        PTCLDY    64  61  90 SE5       29.80R
FOND DU LAC    CLOUDY    65  61  87 SW6       29.78R
SHEBOYGAN      MOCLDY    64  60  87 S7        29.77S
WEST BEND      MOCLDY    63  61  94 CALM      29.78S
JUNEAU         CLOUDY    63  62  96 CALM      29.80R
$$

LSZ147-162-300400-
LAKE SUPERIOR

STATION/POSITION TIME  TEMP    WIND        PRES    WAVE
                       AIR SEA DIR/SP/G            HT/PER
                 (UTC) (F)     (DEG/KT/KT) (MB)    (FT/S)
W MID LAKE BUOY  0150   48 38   50/ 10/ 10 1009.0F   0
DEVILS ISLAND    0200   60      30/  7/  8 1009.3R
SAXON HARBOR     0200   64      40/  6/  7 1008.8
$$

LMZ867-665-643>646-300400-
LAKE MICHIGAN

STATION/POSITION TIME  TEMP    WIND        PRES    WAVE
                       AIR SEA DIR/SP/G            HT/PER
                 (UTC) (F)     (DEG/KT/KT) (MB)    (FT/S)
CHAMBERS ISLAND  0200   67      CALM  /  5 1007.8S
S GREEN BAY BUOY 0230   70 71  170/ 10/ 12 1008.8F
N MID LAKE BUOY  0150   56 48  210/ 10/ 12 1008.0F   1/ 3
NORTHPORT PIER   0200   66     150/  3/  4 1007.8S
ALGOMA LAKESHORE 0210          200/ 10/ 11   N/A
KEWAUNEE LAKESHO 0200   60     180/  9/ 10 1007.1F
SHEBOYGAN LAKESH 0100   62     190/ 12/ 12 1008.6F
PORT WASHINGTON  0200   63     180/  6/  9 1008.8F
ATWATER BUOY     0200   62 60  180/  8/  8 1009.8F
MILWAUKEE LAKESH 0200   62     150/  8/  9   N/A
KENOSHA   LAKESH 0200   61     160/  7/  7 1008.5F
$$

TC  - TEMPERATURE IN CELSIUS
VSB - VISIBILITY IN STATUTE MILES
WCI - WIND CHILL INDEX
HX  - HEAT INDEX




USA.gov is the U.S. government's official web portal to all federal, state and local government web resources and services.